This demonstration page uses our WeatherBlox Daily Observations layout. Learn more.

Left ArrowRight Arrow

31.84235, -102.49876

Hourly Observations for March 4, 2017

Temp ( °F °C ) Dew Point ( °F °C ) Humidity (%) Winds ( mph kmh ) Pressure ( in mb ) Visibility ( mi km ) Precip ( " mm )
12:53 am 00:53 Clear 48 8.9 24 -4.4 39 39 SSE 6 9 30.25 1024 10 16 0.00 0.00
1:53 am 01:53 Clear 45 7.2 23 -5 42 42 SE 9 15 30.23 1024 10 16 0.00 0.00
2:53 am 02:53 Clear 42 5.6 23 -5 47 47 SE 9 15 30.21 1023 10 16 0.00 0.00
3:53 am 03:53 Clear 43 6.1 25 -3.9 49 49 SSE 5 7 30.19 1022 10 16 0.00 0.00
4:53 am 04:53 Clear 42 5.6 26 -3.3 53 53 SSE 3 6 30.19 1023 10 16 0.00 0.00
5:53 am 05:53 Clear 43 6.1 29 -1.7 58 58 SSE 7 11 30.17 1022 10 16 0.00 0.00
6:53 am 06:53 Clear 42 5.6 29 -1.7 60 60 SE 8 13 30.17 1022 10 16 0.00 0.00
7:53 am 07:53 Sunny 44 6.7 33 0.6 65 65 SSE 3 6 30.19 1022 10 16 0.00 0.00
8:53 am 08:53 Sunny 51 10.6 39 3.9 64 64 S 10 17 30.19 1022 10 16 0.00 0.00
9:53 am 09:53 Sunny 53 11.7 42 5.6 66 66 S 15 24 30.19 1022 10 16 0.00 0.00
10:53 am 10:53 Sunny 56 13.3 42 5.6 60 60 S 13 20 30.17 1022 10 16 0.00 0.00
11:53 am 11:53 Sunny 61 16.1 40 4.4 46 46 S 20 31 30.16 1021 10 16 0.00 0.00
12:53 pm 12:53 Sunny 63 17.2 39 3.9 41 41 S 15 24 30.13 1020 10 16 0.00 0.00
1:53 pm 13:53 Sunny 64 17.8 39 3.9 40 40 S 20 31 30.09 1019 10 16 0.00 0.00
2:53 pm 14:53 Mostly Cloudy 65 18.3 41 5 42 42 SSE 18 30 30.06 1018 10 16 0.00 0.00
3:53 pm 15:53 Mostly Cloudy 65 18.3 42 5.6 43 43 S 16 26 30.05 1018 10 16 0.00 0.00
4:53 pm 16:53 Cloudy 62 16.7 41 5 46 46 S 15 24 30.06 1018 10 16 0.00 0.00
5:53 pm 17:53 Cloudy 58 14.4 44 6.7 60 60 S 20 31 30.06 1018 10 16 0.00 0.00
6:53 pm 18:53 Mostly Cloudy 57 13.9 46 7.8 67 67 S 18 30 30.06 1018 10 16 0.00 0.00
7:53 pm 19:53 Mostly Clear 56 13.3 46 7.8 70 70 S 16 26 30.08 1019 10 16 0.00 0.00
8:53 pm 20:53 Clear 56 13.3 46 7.8 70 70 S 17 28 30.07 1018 10 16 0.00 0.00
9:53 pm 21:53 Clear 54 12.2 48 8.9 80 80 S 21 33 30.07 1018 10 16 0.00 0.00
10:15 pm 22:15 Partly Cloudy 53 11.7 48 8.9 83 83 S 16 26 30.12 1020 10 16 0.00 0.00
10:24 pm 22:24 Mostly Cloudy 54 12.2 49 9.4 83 83 S 17 28 30.09 1019 10 16 0.00 0.00
10:53 pm 22:53 Cloudy 54 12.2 49 9.4 83 83 S 18 30 30.07 1018 10 16 0.00 0.00
11:53 pm 23:53 Cloudy 55 12.8 49 9.4 80 80 S 20 31 30.06 1018 10 16 0.00 0.00

Powered by AerisWeather